User: anonymous   Login
Location: ??
(34.9170°N, 135.5016°E)
Time: 03:13:38
(UTC+00:00)
Language:

Uosat 12 SS-18 rocket - Orbit

View from above orbital plane
View from above orbital plane
View from above satellite
View from above satellite

Ground track
Ground track

The orbit data is extracted from the following two-line orbital elements,

1 25695U 99021C   21018.90021817 -.00000069  00000-0  15166-4 0  9997
2 25695  64.5568 248.1892 0533719  54.2153 310.7307 13.72009562 88894
Epoch (UTC): 18 January 2021 21:36:18
Eccentricity: 0.0533719
inclination: 64.5568°
perigee height: 599 km
apogee height: 1386 km
right ascension of ascending node: 248.1892°
argument of perigee: 54.2153°
revolutions per day: 13.72009562
mean anomaly at epoch: 310.7307°
orbit number at epoch: 8889

The dashed part of the orbit path shows where the satellite is in the earth's shadow,  

DLR